Location: Lancaster
(54.0470°N, 2.8020°W)
Time: 23:50:53
(UTC+00:00)

COSMOS 2428 - Visible Passes

Search period start: 24 February 2018 00:00
Search period end: 06 March 2018 00:00
Orbit: 842 x 859 km, 70.9° (Epoch: 24 February)

Date Brightness Start Highest point End Pass type
(mag) Time Alt. Az. Time Alt. Az. Time Alt. Az.
24 Feb 5.1 06:35:35 10° SSE 06:40:26 29° ESE 06:45:19 10° NE visible
25 Feb 5.1 06:23:19 10° SSE 06:28:09 29° ESE 06:33:02 10° NE visible
26 Feb 5.0 06:11:02 10° SSE 06:15:53 29° ESE 06:20:45 10° NE visible
27 Feb 5.0 05:58:46 10° SSE 06:03:36 29° ESE 06:08:28 10° NE visible
28 Feb 4.9 05:46:28 10° SSE 05:51:19 29° ESE 05:56:11 10° NE visible
01 Mar 4.9 05:34:12 10° SSE 05:39:02 29° ESE 05:43:54 10° NE visible
02 Mar 4.8 05:21:55 10° SSE 05:26:45 29° ESE 05:31:37 10° NE visible
03 Mar 4.7 05:09:38 10° SSE 05:14:29 29° ESE 05:19:21 10° NE visible
04 Mar 4.7 04:57:21 10° SSE 05:02:11 29° ESE 05:07:03 10° NE visible
05 Mar 4.6 04:45:04 10° SSE 04:49:54 29° ESE 04:54:46 10° NE visible
